Location: Edinburgh
(55.9500°N, 3.1600°W)
Time: 17:07:28
(UTC+00:00)

Envisat - Pass Details

Date: 21 February 2019
Orbit: 764 x 766 km, 98.2° (Epoch: 19 March)

Event Time Altitude Azimuth Distance (km) Brightness Sun altitude
Rises 18:16:37 0° 156° (SSE) 3,226 6.1 -7.3°
Reaches altitude 10° 18:18:55 10° 154° (SSE) 2,303 5.3 -7.6°
Maximum altitude 18:23:59 74° 71° (ENE) 803 3.0 -8.3°
Drops below altitude 10° 18:29:05 10° 347° (NNW) 2,318 5.6 -9.0°
Sets 18:31:24 0° 346° (NNW) 3,249 6.4 -9.4°
